Weather History for KGON - March, 2014

Change the Weather History Date:

Tuesday, March 18, 2014

  Actual Average Record
Temperature  
Mean Temperature 28 °F -  
Max Temperature 39 °F 45 °F 73 °F (2011)
Min Temperature 19 °F 27 °F 6 °F (1967)
Degree Days  
Heating Degree Days 37    
Moisture  
Dew Point 15 °F    
Average Humidity 57    
Maximum Humidity 78    
Minimum Humidity 35    
Precipitation  
Precipitation 0.00 in - - ()
Sea Level Pressure  
Sea Level Pressure 30.27 in    
Wind  
Wind Speed 7 mph (ENE)    
Max Wind Speed 15 mph    
Max Gust Speed -    
Visibility 10 miles    
Events      
Averages and records for this station are not official NWS values.
T = Trace of Precipitation, MM = Missing Value Source: NWS Daily Summary

Daily Weather History Graph

Daily Weather History Graph

Search for Another Location

Airport or City:

Trip Planner

Search our weather history database for the weather conditions in past years. The results will help you decide how hot, cold, wet, or windy it might be!

Date:

Astronomy

Mar. 18, 2014 Rise Set
Actual Time 6:54 AM EDT 6:58 PM EDT
Civil Twilight 6:27 AM EDT 7:25 PM EDT
Nautical Twilight 5:55 AM EDT 7:57 PM EDT
Astronomical Twilight 5:22 AM EDT 8:30 PM EDT
Moon 9:14 PM EDT (3/18) 7:41 AM EDT (3/18)
Length of Visible Light 12h 58m
Length of Day
12h 03m
Waning Gibbous, 96% of the Moon is Illuminated
Mar 18
Waning Gibbous
Mar 23
Last Quarter
Mar 30
New
Apr 7
First Quarter
Apr 15
Full

Hourly Weather History & Observations

Time (EDT) Temp. Windchill Dew Point Humidity Pressure Visibility Wind Dir Wind Speed Gust Speed Precip Events Conditions
12:56 AM 21.0 °F 16.2 °F 9.0 °F 60% 30.15 in 10.0 mi North 3.5 mph - N/A   Clear
1:56 AM 21.0 °F 14.6 °F 10.0 °F 63% 30.16 in 10.0 mi NNE 4.6 mph - N/A   Clear
2:56 AM 21.0 °F 13.4 °F 12.0 °F 68% 30.17 in 10.0 mi North 5.8 mph - N/A   Clear
3:56 AM 19.0 °F 10.0 °F 10.0 °F 68% 30.18 in 9.0 mi North 6.9 mph - N/A   Clear
4:56 AM 19.0 °F 10.0 °F 10.0 °F 68% 30.20 in 10.0 mi North 6.9 mph - N/A   Clear
5:56 AM 19.0 °F 9.0 °F 8.1 °F 62% 30.22 in 9.0 mi North 8.1 mph - N/A   Clear
6:56 AM 19.0 °F 10.0 °F 5.0 °F 54% 30.22 in 9.0 mi NNE 6.9 mph - N/A   Clear
7:56 AM 23.0 °F 13.1 °F 1.9 °F 40% 30.27 in 10.0 mi NNE 9.2 mph - N/A   Clear
8:56 AM 27.0 °F 20.5 °F 3.0 °F 36% 30.31 in 10.0 mi NE 5.8 mph - N/A   Clear
9:56 AM 30.9 °F 24.3 °F 9.0 °F 40% 30.30 in 10.0 mi NE 6.9 mph - N/A   Clear
10:56 AM 34.0 °F 24.2 °F 10.9 °F 38% 30.28 in 10.0 mi ENE 15.0 mph - N/A   Clear
11:56 AM 37.9 °F 33.5 °F 12.0 °F 35% 30.28 in 10.0 mi NNE 5.8 mph - N/A   Clear
12:37 PM 37.4 °F 28.9 °F 17.6 °F 45% 30.28 in 10.0 mi ESE 13.8 mph - N/A   Clear
12:56 PM 37.0 °F 28.9 °F 18.0 °F 46% 30.27 in 10.0 mi ESE 12.7 mph - N/A   Clear
1:56 PM 37.0 °F 28.9 °F 19.0 °F 48% 30.28 in 10.0 mi SE 12.7 mph - N/A   Clear
2:56 PM 37.0 °F 29.3 °F 21.0 °F 52% 30.29 in 10.0 mi SE 11.5 mph - N/A   Clear
3:56 PM 37.9 °F 30.9 °F 21.0 °F 51% 30.30 in 10.0 mi SE 10.4 mph - N/A   Clear
4:56 PM 37.0 °F 29.8 °F 23.0 °F 57% 30.30 in 10.0 mi ESE 10.4 mph - N/A   Clear
5:56 PM 35.1 °F 26.4 °F 25.0 °F 67% 30.30 in 9.0 mi ESE 12.7 mph - N/A   Clear
6:56 PM 34.0 °F 26.0 °F 24.1 °F 67% 30.30 in 9.0 mi ESE 10.4 mph - N/A   Clear
7:56 PM 32.0 °F 24.8 °F 24.1 °F 73% 30.31 in 10.0 mi East 8.1 mph - N/A   Clear
8:56 PM 30.9 °F 24.3 °F 23.0 °F 72% 30.32 in 10.0 mi ENE 6.9 mph - N/A   Clear
9:56 PM 30.0 °F 23.2 °F 21.9 °F 72% 30.33 in 10.0 mi NE 6.9 mph - N/A   Clear
10:56 PM 28.9 °F 21.9 °F 23.0 °F 78% 30.32 in 10.0 mi ENE 6.9 mph - N/A   Clear
11:56 PM 28.0 °F 21.7 °F 21.0 °F 75% 30.32 in 10.0 mi NNE 5.8 mph - N/A   Clear